Location: Winthrop
(48.4780°N, 120.1850°W)
Time: 18:56:03
(UTC-08:00)

Envisat - Pass Details

Date: 26 November 2022
Orbit: 763 x 765 km, 98.2° (Epoch: 05 February)

Event Time Altitude Azimuth Distance (km) Brightness Sun altitude
Rises 05:41:09 0° 4° (N) 3,245 6.2 -16.7°
Reaches altitude 10° 05:43:51 10° 350° (N) 2,314 5.3 -16.2°
Enters shadow 05:47:38 23° 302° (WNW) 1,580 4.1 -15.6°
